2022/02/25 23:32:00+0000,-33.93,-47.72,-30.34,-48.10,-52.39,-55.40
2022/02/25 23:32:52+0000,-34.27,-48.02,-30.77,-47.35,-49.49,-55.28
2022/02/25 23:33:44+0000,-35.16,-47.50,-30.51,-48.31,-50.10,-54.99
2022/02/25 23:34:36+0000,-35.77,-47.34,-30.70,-48.36,-52.59,-55.19
2022/02/25 23:35:28+0000,-35.39,-47.55,-30.47,-46.21,-52.72,-55.12
2022/02/25 23:36:20+0000,-36.54,-47.99,-30.13,-49.45,-50.20,-54.98
2022/02/25 23:37:12+0000,-35.58,-48.08,-30.87,-48.34,-50.12,-54.51
2022/02/25 23:38:04+0000,-36.00,-48.20,-30.58,-50.29,-52.62,-55.31
2022/02/25 23:38:56+0000,-34.20,-47.13,-30.05,-48.32,-54.02,-54.44
2022/02/25 23:39:49+0000,-34.01,-47.57,-30.59,-49.91,-51.62,-55.22
2022/02/25 23:40:41+0000,-34.67,-47.06,-30.29,-49.17,-53.78,-54.75
2022/02/25 23:41:39+0000,-35.84,-47.35,-30.32,-48.78,-52.17,-54.94
2022/02/25 23:42:31+0000,-34.58,-47.25,-30.60,-47.83,-51.27,-55.02
2022/02/25 23:43:23+0000,-34.95,-47.96,-30.27,-46.70,-51.58,-54.50
2022/02/25 23:44:15+0000,-35.43,-47.33,-30.06,-48.26,-50.34,-54.97
2022/02/25 23:45:07+0000,-35.82,-47.64,-30.48,-47.07,-49.78,-54.70
2022/02/25 23:45:59+0000,-34.04,-47.90,-30.61,-47.50,-50.59,-54.17
2022/02/25 23:46:51+0000,-35.38,-48.04,-30.13,-49.14,-51.44,-54.38
2022/02/25 23:47:43+0000,-34.74,-48.54,-29.96,-47.28,-50.20,-54.58
2022/02/25 23:48:35+0000,-35.28,-47.63,-30.00,-49.52,-51.65,-54.18
2022/02/25 23:49:27+0000,-34.96,-47.98,-29.93,-46.23,-51.59,-53.85
2022/02/25 23:50:20+0000,-36.33,-48.09,-30.08,-49.50,-52.32,-53.30
2022/02/25 23:51:20+0000,-34.65,-46.20,-30.33,-49.47,-51.57,-53.74
2022/02/25 23:52:12+0000,-33.56,-45.60,-30.24,-47.27,-53.00,-54.16
2022/02/25 23:53:04+0000,-34.93,-45.84,-30.64,-48.85,-52.48,-53.72
2022/02/25 23:53:56+0000,-32.98,-45.98,-30.25,-47.64,-53.00,-53.72
2022/02/25 23:54:48+0000,-31.59,-45.93,-30.46,-47.17,-51.58,-53.52
2022/02/25 23:55:40+0000,-34.39,-45.46,-30.53,-48.09,-51.61,-53.66
2022/02/25 23:56:32+0000,-32.08,-45.65,-31.00,-47.48,-51.74,-53.91
2022/02/25 23:57:24+0000,-33.87,-45.71,-29.98,-48.05,-52.06,-53.65
2022/02/25 23:58:16+0000,-33.70,-45.88,-29.89,-47.86,-51.08,-53.91
2022/02/25 23:59:08+0000,-35.49,-45.77,-29.96,-47.29,-48.52,-53.53
2022/02/26 00:00:00+0000,-33.94,-46.16,-29.78,-48.11,-48.83,-53.49
2022/02/26 00:01:02+0000,-35.19,-46.05,-30.11,-49.34,-49.19,-53.53
2022/02/26 00:01:54+0000,-33.20,-46.02,-30.37,-47.50,-53.22,-53.64
2022/02/26 00:02:46+0000,-33.52,-45.96,-30.21,-47.75,-51.13,-53.96
2022/02/26 00:03:38+0000,-34.57,-45.85,-30.58,-48.33,-50.25,-53.15
2022/02/26 00:04:30+0000,-36.92,-45.65,-30.54,-45.78,-51.38,-53.96
2022/02/26 00:05:22+0000,-35.76,-46.59,-30.49,-45.65,-51.52,-53.84
2022/02/26 00:06:14+0000,-35.64,-45.78,-30.64,-47.08,-50.64,-54.34
2022/02/26 00:07:07+0000,-33.21,-46.05,-30.75,-47.57,-51.02,-53.24
2022/02/26 00:07:59+0000,-34.63,-46.69,-30.82,-47.95,-49.99,-54.56
2022/02/26 00:08:51+0000,-33.43,-45.25,-31.20,-47.96,-50.66,-53.78
2022/02/26 00:09:43+0000,-34.33,-47.07,-30.54,-46.34,-50.33,-54.03
2022/02/26 00:10:35+0000,-34.11,-45.42,-30.60,-47.74,-49.82,-53.81
2022/02/26 00:11:38+0000,-33.95,-45.67,-30.75,-47.46,-49.75,-53.41
2022/02/26 00:12:31+0000,-34.47,-46.28,-29.90,-47.15,-50.31,-54.40
2022/02/26 00:13:23+0000,-33.82,-45.63,-30.80,-47.69,-50.63,-53.78
2022/02/26 00:14:15+0000,-36.00,-46.59,-30.83,-46.47,-50.56,-53.62
2022/02/26 00:15:07+0000,-33.14,-45.99,-30.42,-46.48,-50.06,-54.26
2022/02/26 00:15:59+0000,-36.10,-44.98,-30.54,-45.97,-50.28,-53.92
2022/02/26 00:16:51+0000,-36.10,-45.61,-29.81,-47.04,-51.15,-53.57
2022/02/26 00:17:43+0000,-35.69,-45.10,-29.80,-47.06,-51.38,-54.31
2022/02/26 00:18:35+0000,-34.94,-45.48,-30.24,-48.45,-51.18,-53.46
2022/02/26 00:19:27+0000,-34.62,-44.11,-30.41,-47.19,-51.14,-54.05
2022/02/26 00:20:19+0000,-34.23,-46.19,-30.45,-48.56,-51.19,-53.99
2022/02/26 00:21:19+0000,-35.05,-45.41,-30.66,-48.99,-51.65,-53.19
2022/02/26 00:22:11+0000,-35.19,-45.32,-30.75,-45.46,-52.52,-53.78
2022/02/26 00:23:03+0000,-35.49,-45.70,-30.73,-48.39,-50.49,-54.00
2022/02/26 00:23:55+0000,-35.44,-45.46,-30.80,-46.89,-51.14,-53.30
2022/02/26 00:24:47+0000,-35.86,-45.59,-31.27,-46.79,-51.59,-53.46
2022/02/26 00:25:39+0000,-33.88,-44.38,-30.77,-46.32,-51.54,-53.71
2022/02/26 00:26:31+0000,-35.56,-45.84,-30.91,-46.84,-50.65,-53.50
2022/02/26 00:27:23+0000,-36.70,-45.86,-30.87,-47.87,-51.53,-53.84
2022/02/26 00:28:15+0000,-34.78,-46.52,-30.57,-47.71,-51.75,-53.96
2022/02/26 00:29:07+0000,-35.58,-46.11,-30.72,-46.38,-51.30,-53.28
2022/02/26 00:30:00+0000,-35.31,-45.42,-30.92,-48.43,-52.04,-53.73
2022/02/26 00:31:00+0000,-35.00,-44.32,-30.05,-48.63,-51.50,-54.02
2022/02/26 00:31:52+0000,-36.18,-45.75,-31.07,-47.87,-51.00,-53.87
2022/02/26 00:32:44+0000,-34.62,-45.95,-30.47,-46.70,-51.07,-53.58
2022/02/26 00:33:36+0000,-34.47,-45.48,-30.01,-47.50,-51.74,-53.76
2022/02/26 00:34:28+0000,-36.39,-44.54,-30.68,-47.85,-51.94,-53.96
2022/02/26 00:35:20+0000,-35.02,-45.78,-30.66,-48.18,-51.77,-54.31
2022/02/26 00:36:12+0000,-35.80,-46.27,-30.45,-47.06,-50.67,-53.64
2022/02/26 00:37:04+0000,-34.54,-45.85,-30.14,-48.67,-52.12,-53.58
2022/02/26 00:37:56+0000,-36.61,-46.26,-31.37,-47.26,-51.49,-53.60
2022/02/26 00:38:48+0000,-36.24,-45.22,-30.35,-46.28,-52.29,-53.91
2022/02/26 00:39:41+0000,-33.22,-45.71,-11.66,-47.60,-52.19,-54.75
2022/02/26 00:40:33+0000,-34.90,-45.51,-30.69,-46.04,-51.96,-54.02
2022/02/26 00:41:33+0000,-32.88,-44.77,-30.13,-47.27,-51.73,-54.19
2022/02/26 00:42:25+0000,-35.00,-46.81,-11.84,-47.78,-51.62,-54.18
2022/02/26 00:43:17+0000,-35.84,-46.33,-11.37,-44.94,-50.64,-53.74
2022/02/26 00:44:09+0000,-34.89,-46.30,-30.12,-46.18,-51.27,-53.99
2022/02/26 00:45:01+0000,-35.53,-46.68,-30.75,-46.02,-51.97,-53.83
2022/02/26 00:45:53+0000,-35.42,-46.54,-11.04,-46.83,-53.32,-54.11
2022/02/26 00:46:45+0000,-35.39,-45.71,-11.38,-47.54,-53.70,-55.13
2022/02/26 00:47:37+0000,-34.50,-45.53,-30.69,-46.39,-53.50,-54.78
2022/02/26 00:48:29+0000,-33.19,-45.71,-30.90,-46.74,-53.60,-54.28
2022/02/26 00:49:21+0000,-34.39,-45.28,-11.19,-46.56,-53.02,-55.11
2022/02/26 00:50:14+0000,-34.75,-45.14,-30.44,-47.86,-53.52,-54.55
2022/02/26 00:51:14+0000,-33.87,-44.27,-30.86,-47.58,-53.43,-54.68
2022/02/26 00:52:06+0000,-36.04,-46.09,-31.14,-47.93,-53.32,-54.37
2022/02/26 00:52:58+0000,-33.53,-44.64,-30.86,-47.16,-53.64,-52.97
2022/02/26 00:53:50+0000,-36.81,-44.83,-11.20,-48.27,-53.60,-54.56
2022/02/26 00:54:42+0000,-36.28,-45.97,-30.70,-48.23,-53.99,-54.89
2022/02/26 00:55:34+0000,-34.75,-44.32,-30.79,-48.68,-52.87,-55.30
2022/02/26 00:56:26+0000,-34.44,-45.29,-11.43,-46.50,-53.60,-54.65
2022/02/26 00:57:18+0000,-36.08,-44.98,-11.16,-46.42,-52.80,-54.60
2022/02/26 00:58:10+0000,-34.67,-47.08,-30.36,-46.24,-53.65,-55.21
2022/02/26 00:59:02+0000,-34.74,-45.81,-30.30,-48.43,-53.47,-55.20
2022/02/26 00:59:55+0000,-35.59,-45.31,-11.73,-46.26,-53.58,-55.08
2022/02/26 01:00:47+0000,-34.69,-45.55,-11.71,-46.45,-53.32,-54.52
2022/02/26 01:01:48+0000,-36.76,-46.10,-11.27,-48.81,-53.23,-55.19
2022/02/26 01:02:40+0000,-35.12,-46.26,-30.88,-46.79,-53.80,-54.90
2022/02/26 01:03:32+0000,-37.15,-46.03,-30.25,-49.13,-54.03,-55.17
2022/02/26 01:04:24+0000,-35.56,-45.15,-11.30,-48.81,-53.40,-54.74
2022/02/26 01:05:16+0000,-34.44,-44.00,-12.00,-48.23,-53.81,-54.53
2022/02/26 01:06:08+0000,-35.33,-45.74,-29.65,-47.78,-53.88,-55.16
2022/02/26 01:07:00+0000,-35.59,-46.65,-30.12,-48.63,-53.46,-55.14
2022/02/26 01:07:52+0000,-36.14,-44.93,-11.47,-48.85,-54.00,-54.44
2022/02/26 01:08:44+0000,-35.66,-44.50,-11.09,-47.14,-53.75,-54.33
2022/02/26 01:09:36+0000,-36.43,-46.03,-29.35,-48.66,-53.98,-55.29
2022/02/26 01:10:28+0000,-34.24,-44.04,-31.06,-48.97,-53.58,-55.39
2022/02/26 01:11:28+0000,-34.41,-44.84,-30.73,-49.90,-53.40,-54.81
2022/02/26 01:12:21+0000,-35.03,-45.87,-10.99,-50.14,-53.83,-55.37
2022/02/26 01:13:13+0000,-36.02,-45.90,-30.70,-49.09,-53.82,-54.45
2022/02/26 01:14:05+0000,-35.35,-45.24,-31.12,-50.65,-54.22,-54.94
2022/02/26 01:14:57+0000,-36.66,-45.20,-30.56,-49.15,-53.52,-54.72
2022/02/26 01:15:49+0000,-34.43,-44.50,-11.21,-51.26,-53.38,-54.86
2022/02/26 01:16:41+0000,-34.44,-45.25,-29.92,-49.32,-53.82,-55.20
2022/02/26 01:17:33+0000,-34.82,-46.04,-30.45,-51.28,-54.74,-55.39
2022/02/26 01:18:25+0000,-34.27,-45.04,-29.82,-50.48,-53.50,-54.23
2022/02/26 01:19:17+0000,-35.10,-44.92,-30.30,-47.80,-53.41,-54.96
2022/02/26 01:20:09+0000,-35.51,-43.88,-30.16,-47.40,-53.29,-54.37
2022/02/26 01:21:08+0000,-34.48,-45.62,-30.70,-49.25,-53.37,-55.10
2022/02/26 01:22:00+0000,-34.41,-43.53,-30.43,-49.74,-53.68,-55.50
2022/02/26 01:22:52+0000,-35.96,-46.39,-30.56,-49.12,-53.38,-54.79
2022/02/26 01:23:44+0000,-35.58,-45.21,-30.47,-48.72,-53.82,-55.05
2022/02/26 01:24:36+0000,-35.04,-45.66,-29.93,-49.13,-53.26,-55.40
2022/02/26 01:25:28+0000,-34.29,-45.05,-30.63,-49.29,-53.01,-54.60
2022/02/26 01:26:20+0000,-34.82,-44.56,-11.04,-49.44,-53.69,-54.50
2022/02/26 01:27:12+0000,-34.75,-45.55,-30.15,-50.19,-53.16,-54.77
2022/02/26 01:28:04+0000,-35.92,-45.55,-31.09,-51.14,-53.82,-55.19
2022/02/26 01:28:56+0000,-34.93,-45.46,-11.01,-49.68,-53.54,-55.04
2022/02/26 01:29:48+0000,-35.74,-45.09,-11.06,-50.63,-54.11,-55.20
2022/02/26 01:30:40+0000,-34.76,-45.00,-29.85,-49.77,-53.22,-54.77
2022/02/26 01:31:39+0000,-36.47,-44.86,-29.91,-49.19,-53.31,-55.09
2022/02/26 01:32:31+0000,-34.86,-45.27,-30.62,-50.14,-53.77,-54.78
2022/02/26 01:33:23+0000,-35.24,-45.47,-30.11,-48.86,-53.64,-54.60
2022/02/26 01:34:15+0000,-34.12,-44.94,-11.55,-47.94,-53.42,-54.57
2022/02/26 01:35:07+0000,-35.23,-46.02,-29.90,-48.70,-53.74,-54.90
2022/02/26 01:35:59+0000,-34.63,-44.60,-29.85,-49.72,-53.95,-55.31
2022/02/26 01:36:51+0000,-34.47,-45.45,-11.79,-49.94,-53.45,-55.33
2022/02/26 01:37:43+0000,-35.18,-43.46,-29.72,-48.95,-53.98,-54.57
2022/02/26 01:38:35+0000,-34.00,-45.68,-30.22,-51.25,-53.03,-54.64
2022/02/26 01:39:27+0000,-33.49,-45.14,-29.95,-48.68,-53.27,-55.01
2022/02/26 01:40:20+0000,-34.66,-43.55,-11.10,-51.17,-53.24,-54.39
2022/02/26 01:41:18+0000,-33.21,-44.17,-11.39,-49.89,-52.94,-54.57
2022/02/26 01:42:10+0000,-33.22,-43.37,-29.80,-49.92,-53.52,-55.06
2022/02/26 01:43:02+0000,-34.55,-44.16,-29.79,-48.39,-53.04,-54.84
2022/02/26 01:43:54+0000,-34.01,-43.56,-11.74,-47.82,-53.84,-54.77
2022/02/26 01:44:46+0000,-32.79,-43.25,-11.08,-48.88,-53.53,-54.77
2022/02/26 01:45:38+0000,-33.69,-44.82,-30.25,-49.63,-54.14,-54.77
2022/02/26 01:46:30+0000,-33.29,-43.67,-30.74,-47.28,-53.63,-54.96
2022/02/26 01:47:22+0000,-33.69,-44.96,-11.39,-49.84,-54.06,-54.75
2022/02/26 01:48:14+0000,-32.85,-42.02,-30.33,-49.43,-53.91,-54.90
2022/02/26 01:49:06+0000,-33.85,-44.21,-29.64,-49.88,-53.68,-54.65
2022/02/26 01:49:58+0000,-34.11,-44.10,-30.53,-48.49,-53.31,-54.77
2022/02/26 01:50:50+0000,-34.71,-42.91,-11.45,-50.46,-53.38,-54.31
2022/02/26 01:51:54+0000,-34.37,-43.68,-11.46,-50.10,-53.21,-54.53
2022/02/26 01:52:46+0000,-34.91,-42.78,-11.63,-49.10,-53.02,-54.77
2022/02/26 01:53:38+0000,-32.66,-44.53,-29.53,-50.04,-53.42,-54.95
2022/02/26 01:54:30+0000,-33.54,-45.19,-29.86,-49.45,-53.09,-54.60
2022/02/26 01:55:22+0000,-32.95,-44.44,-11.09,-48.57,-53.33,-54.69
2022/02/26 01:56:14+0000,-33.09,-42.62,-30.31,-49.61,-53.11,-54.52
2022/02/26 01:57:06+0000,-32.44,-44.29,-29.51,-50.90,-53.47,-54.74
2022/02/26 01:57:58+0000,-32.85,-45.17,-27.36,-50.70,-53.17,-54.57
2022/02/26 01:58:50+0000,-34.45,-43.05,-11.31,-50.29,-53.82,-55.17
2022/02/26 01:59:42+0000,-34.78,-43.68,-29.89,-48.94,-53.36,-54.85
2022/02/26 02:00:35+0000,-35.32,-43.77,-29.85,-50.11,-52.49,-54.71
2022/02/26 02:01:35+0000,-32.93,-44.97,-29.74,-48.69,-52.91,-54.76
2022/02/26 02:02:27+0000,-30.98,-43.54,-30.54,-50.00,-53.53,-54.54
2022/02/26 02:03:19+0000,-35.56,-44.91,-11.62,-49.74,-53.35,-54.95
2022/02/26 02:04:11+0000,-34.42,-43.39,-30.70,-48.68,-52.96,-55.24
2022/02/26 02:05:03+0000,-33.15,-43.64,-30.17,-50.47,-52.89,-54.95
2022/02/26 02:05:56+0000,-32.52,-43.20,-11.33,-50.70,-52.77,-54.49
2022/02/26 02:06:48+0000,-34.50,-43.90,-11.10,-50.94,-53.34,-54.26
2022/02/26 02:07:40+0000,-33.26,-43.11,-30.09,-48.82,-52.45,-55.08
2022/02/26 02:08:32+0000,-32.46,-43.98,-30.26,-51.05,-53.12,-55.97
2022/02/26 02:09:24+0000,-34.00,-43.78,-11.36,-50.71,-52.81,-55.33
2022/02/26 02:10:16+0000,-35.04,-43.39,-11.10,-50.10,-52.88,-55.08
2022/02/26 02:11:19+0000,-33.95,-40.37,-11.15,-50.53,-52.97,-54.47
2022/02/26 02:12:11+0000,-34.55,-41.78,-29.90,-49.33,-52.68,-54.74
2022/02/26 02:13:03+0000,-35.25,-43.08,-30.23,-49.99,-53.06,-54.92
2022/02/26 02:13:55+0000,-35.08,-43.57,-11.75,-49.72,-52.33,-55.17
2022/02/26 02:14:47+0000,-34.20,-42.46,-10.99,-48.16,-52.75,-54.81
2022/02/26 02:15:39+0000,-34.35,-41.77,-30.23,-49.15,-53.06,-54.73
2022/02/26 02:16:31+0000,-33.72,-42.78,-30.57,-50.76,-52.52,-55.03
2022/02/26 02:17:23+0000,-33.81,-43.13,-10.97,-49.80,-52.09,-55.04
2022/02/26 02:18:15+0000,-33.72,-40.34,-29.60,-48.67,-52.65,-54.65
2022/02/26 02:19:07+0000,-32.54,-44.31,-29.55,-48.05,-52.88,-54.49
2022/02/26 02:20:00+0000,-32.28,-44.28,-29.85,-50.38,-52.69,-54.52
2022/02/26 02:20:58+0000,-34.13,-44.16,-30.46,-50.26,-53.86,-54.55
2022/02/26 02:21:50+0000,-33.53,-41.83,-30.14,-50.76,-53.13,-54.21
2022/02/26 02:22:42+0000,-34.44,-41.78,-30.66,-49.26,-53.11,-55.07
2022/02/26 02:23:34+0000,-32.90,-43.54,-30.22,-51.61,-53.05,-55.28
2022/02/26 02:24:26+0000,-32.86,-42.85,-29.59,-50.63,-52.71,-54.99
2022/02/26 02:25:18+0000,-32.32,-42.72,-30.08,-49.27,-53.37,-54.69
2022/02/26 02:26:10+0000,-33.58,-41.53,-29.76,-49.38,-53.36,-54.93
2022/02/26 02:27:02+0000,-33.23,-43.19,-29.83,-49.98,-53.10,-54.97
2022/02/26 02:27:54+0000,-33.46,-42.74,-29.80,-51.33,-52.92,-54.08
2022/02/26 02:28:46+0000,-35.02,-42.23,-30.02,-50.48,-52.46,-54.71
2022/02/26 02:29:38+0000,-34.35,-42.48,-29.86,-51.22,-53.49,-54.23
2022/02/26 02:30:30+0000,-33.86,-43.56,-29.95,-50.22,-52.65,-54.55
2022/02/26 02:31:34+0000,-33.00,-43.44,-30.21,-50.84,-53.06,-54.23
2022/02/26 02:32:26+0000,-31.81,-43.25,-30.55,-49.84,-53.02,-54.32
2022/02/26 02:33:18+0000,-34.26,-40.76,-30.18,-50.30,-53.32,-55.02
2022/02/26 02:34:10+0000,-34.11,-43.90,-30.08,-50.25,-52.75,-55.28
2022/02/26 02:35:02+0000,-34.55,-44.16,-30.33,-50.43,-53.49,-55.34
2022/02/26 02:35:54+0000,-32.74,-43.98,-29.63,-50.62,-53.08,-54.86
2022/02/26 02:36:46+0000,-35.91,-43.05,-30.45,-49.83,-52.91,-54.92
2022/02/26 02:37:38+0000,-33.58,-42.97,-30.42,-49.26,-53.52,-55.35
2022/02/26 02:38:30+0000,-36.10,-43.38,-29.75,-50.17,-53.05,-54.15
2022/02/26 02:39:22+0000,-35.84,-44.08,-30.62,-50.98,-53.86,-54.99
2022/02/26 02:40:14+0000,-33.00,-43.16,-30.00,-50.49,-52.94,-54.54
2022/02/26 02:41:20+0000,-34.71,-42.26,-30.11,-51.45,-53.24,-54.73
2022/02/26 02:42:12+0000,-34.06,-43.22,-30.40,-48.51,-52.38,-54.83
2022/02/26 02:43:04+0000,-34.54,-42.52,-30.05,-51.02,-52.20,-54.79
2022/02/26 02:43:56+0000,-36.34,-42.32,-29.88,-49.69,-53.25,-55.05
2022/02/26 02:44:48+0000,-32.76,-43.58,-29.78,-49.68,-52.35,-55.02
2022/02/26 02:45:40+0000,-35.64,-42.41,-29.83,-49.81,-52.66,-54.47
2022/02/26 02:46:32+0000,-33.12,-43.69,-29.77,-49.05,-51.67,-54.27
2022/02/26 02:47:24+0000,-32.10,-43.90,-29.88,-49.31,-53.32,-55.43
2022/02/26 02:48:16+0000,-35.20,-43.23,-30.17,-50.39,-52.86,-54.65
2022/02/26 02:49:08+0000,-34.01,-43.07,-30.17,-50.25,-51.49,-55.18
2022/02/26 02:50:00+0000,-34.45,-43.80,-29.83,-49.09,-52.31,-54.34
2022/02/26 02:50:59+0000,-33.82,-42.34,-31.09,-48.11,-51.89,-54.73
2022/02/26 02:51:51+0000,-34.72,-44.33,-31.23,-49.87,-52.20,-54.57
2022/02/26 02:52:43+0000,-33.63,-42.29,-30.90,-50.24,-52.88,-54.68
2022/02/26 02:53:35+0000,-35.24,-44.32,-29.99,-51.21,-52.45,-54.25
2022/02/26 02:54:27+0000,-33.72,-42.31,-30.83,-49.75,-52.79,-54.55
2022/02/26 02:55:19+0000,-33.01,-42.94,-30.68,-50.84,-52.91,-53.86
2022/02/26 02:56:11+0000,-36.44,-43.66,-29.75,-49.39,-53.51,-54.56
2022/02/26 02:57:03+0000,-34.78,-42.47,-30.64,-49.42,-52.25,-55.13
2022/02/26 02:57:55+0000,-34.48,-43.11,-31.16,-49.44,-53.26,-54.37
2022/02/26 02:58:47+0000,-36.42,-42.76,-30.81,-49.41,-53.34,-54.78
2022/02/26 02:59:39+0000,-35.20,-43.37,-30.53,-50.09,-52.90,-54.94
2022/02/26 03:00:32+0000,-35.52,-43.41,-30.46,-48.71,-52.95,-54.72
2022/02/26 03:01:30+0000,-35.36,-44.22,-30.71,-50.09,-52.41,-54.65
2022/02/26 03:02:23+0000,-35.33,-42.40,-29.43,-50.18,-52.77,-54.93
2022/02/26 03:03:15+0000,-31.40,-44.12,-29.65,-49.63,-52.74,-54.46
2022/02/26 03:04:07+0000,-27.00,-44.07,-30.12,-49.13,-53.11,-54.69
2022/02/26 03:04:59+0000,-26.85,-44.03,-30.08,-49.51,-53.23,-54.57
2022/02/26 03:05:51+0000,-31.00,-45.07,-30.57,-50.10,-53.07,-54.77
2022/02/26 03:06:43+0000,-29.84,-43.24,-30.21,-50.25,-53.62,-54.75
2022/02/26 03:07:35+0000,-28.71,-44.01,-30.73,-50.38,-53.53,-54.21
2022/02/26 03:08:27+0000,-29.13,-42.92,-30.15,-49.55,-52.64,-55.28
2022/02/26 03:09:19+0000,-30.61,-42.86,-30.14,-51.01,-53.49,-54.95
2022/02/26 03:10:11+0000,-30.73,-43.10,-30.91,-50.49,-53.14,-54.86
2022/02/26 03:11:09+0000,-26.77,-41.07,-30.85,-50.94,-53.14,-54.93
2022/02/26 03:12:01+0000,-31.53,-43.09,-30.79,-50.29,-52.69,-54.18
2022/02/26 03:12:53+0000,-27.49,-42.92,-30.84,-50.22,-52.57,-54.67
2022/02/26 03:13:45+0000,-26.66,-42.15,-29.99,-50.58,-52.80,-54.51
2022/02/26 03:14:37+0000,-33.89,-41.72,-31.01,-51.21,-53.10,-54.59
2022/02/26 03:15:29+0000,-31.54,-41.96,-30.55,-50.62,-53.35,-54.73
2022/02/26 03:16:21+0000,-31.85,-44.63,-30.32,-50.53,-53.01,-54.42
2022/02/26 03:17:13+0000,-29.81,-43.57,-30.43,-50.68,-53.03,-54.74
2022/02/26 03:18:05+0000,-26.51,-44.47,-30.75,-49.52,-52.83,-54.99
2022/02/26 03:18:58+0000,-28.08,-43.35,-30.49,-50.88,-53.30,-54.94
2022/02/26 03:19:50+0000,-31.39,-43.32,-29.95,-49.97,-52.75,-54.84
2022/02/26 03:20:42+0000,-30.99,-42.36,-30.84,-50.86,-52.35,-54.24
2022/02/26 03:21:41+0000,-29.75,-41.38,-30.49,-50.64,-53.19,-54.87
2022/02/26 03:22:33+0000,-29.26,-43.19,-30.64,-49.96,-52.76,-55.21
2022/02/26 03:23:25+0000,-32.74,-42.47,-30.93,-50.59,-52.64,-54.83
2022/02/26 03:24:17+0000,-30.17,-42.32,-30.97,-50.87,-52.83,-54.84
2022/02/26 03:25:09+0000,-30.83,-43.33,-30.31,-49.72,-52.57,-54.83
2022/02/26 03:26:01+0000,-28.16,-43.01,-31.30,-50.00,-53.15,-54.83
2022/02/26 03:26:53+0000,-30.26,-43.95,-31.10,-51.01,-52.77,-54.44
2022/02/26 03:27:45+0000,-33.72,-43.95,-31.40,-49.98,-52.92,-54.66
2022/02/26 03:28:37+0000,-28.81,-43.80,-31.33,-49.57,-52.91,-54.95
2022/02/26 03:29:29+0000,-33.82,-43.49,-30.90,-50.23,-53.27,-55.36
2022/02/26 03:30:22+0000,-31.27,-44.87,-30.98,-50.42,-52.80,-54.46
2022/02/26 03:31:25+0000,-30.17,-42.04,-30.92,-50.17,-52.55,-54.50
2022/02/26 03:32:17+0000,-30.37,-41.83,-30.52,-50.45,-53.09,-54.49
2022/02/26 03:33:09+0000,-31.36,-42.74,-30.69,-50.42,-53.03,-54.78
2022/02/26 03:34:01+0000,-28.26,-41.28,-31.05,-49.68,-52.70,-55.00
2022/02/26 03:34:53+0000,-25.52,-44.64,-31.31,-49.70,-53.02,-54.32
2022/02/26 03:35:45+0000,-30.34,-42.19,-31.98,-49.64,-52.58,-53.93
2022/02/26 03:36:37+0000,-33.58,-45.20,-30.71,-50.44,-53.04,-54.71
2022/02/26 03:37:29+0000,-28.45,-41.58,-31.51,-49.99,-52.50,-53.94
2022/02/26 03:38:21+0000,-25.53,-44.35,-30.81,-50.06,-52.68,-54.36
2022/02/26 03:39:13+0000,-26.50,-42.52,-31.00,-50.13,-52.51,-54.62
2022/02/26 03:40:06+0000,-31.36,-40.14,-31.14,-49.82,-53.21,-54.26
2022/02/26 03:41:06+0000,-32.76,-42.45,-31.45,-50.49,-52.44,-54.19
2022/02/26 03:41:58+0000,-31.57,-39.86,-30.41,-49.55,-52.76,-54.14
2022/02/26 03:42:50+0000,-25.18,-40.62,-30.69,-50.41,-53.24,-54.83
2022/02/26 03:43:42+0000,-26.65,-40.62,-31.01,-50.77,-53.09,-54.38
2022/02/26 03:44:34+0000,-33.64,-41.08,-30.42,-50.24,-52.81,-54.76
2022/02/26 03:45:26+0000,-31.76,-42.65,-30.41,-50.26,-52.44,-54.24
2022/02/26 03:46:18+0000,-32.58,-41.98,-30.21,-50.31,-53.23,-54.55
2022/02/26 03:47:10+0000,-30.34,-42.22,-30.49,-50.51,-52.94,-54.46
2022/02/26 03:48:02+0000,-30.22,-37.83,-31.03,-50.50,-52.92,-55.20
2022/02/26 03:48:54+0000,-31.71,-39.97,-29.70,-50.28,-52.96,-54.28
2022/02/26 03:49:47+0000,-28.08,-42.15,-29.92,-50.39,-53.17,-54.55
2022/02/26 03:50:39+0000,-30.15,-43.87,-30.28,-49.50,-53.02,-54.94
2022/02/26 03:51:39+0000,-30.49,-43.84,-30.74,-50.09,-53.24,-54.39
2022/02/26 03:52:31+0000,-34.36,-40.82,-30.86,-50.18,-53.11,-54.16
2022/02/26 03:53:23+0000,-26.68,-44.03,-30.97,-50.60,-53.65,-54.81
2022/02/26 03:54:15+0000,-30.42,-42.68,-30.84,-49.70,-52.59,-54.69
2022/02/26 03:55:07+0000,-31.16,-44.24,-31.06,-50.76,-53.46,-54.77
2022/02/26 03:55:59+0000,-30.22,-39.55,-31.18,-50.16,-52.78,-54.61
2022/02/26 03:56:51+0000,-31.28,-42.13,-30.61,-50.28,-52.80,-54.22
2022/02/26 03:57:43+0000,-29.88,-38.81,-30.99,-50.37,-53.01,-54.21
2022/02/26 03:58:35+0000,-25.89,-42.31,-30.85,-50.09,-53.38,-54.64
2022/02/26 03:59:27+0000,-28.91,-38.09,-31.06,-49.98,-52.62,-54.80
2022/02/26 04:00:19+0000,-32.75,-41.52,-30.85,-49.28,-53.61,-54.80
2022/02/26 04:01:20+0000,-33.76,-42.95,-30.81,-50.24,-52.96,-54.48
2022/02/26 04:02:12+0000,-29.44,-41.74,-30.97,-49.80,-53.04,-54.25
2022/02/26 04:03:04+0000,-27.55,-41.82,-30.53,-50.11,-53.52,-54.69
2022/02/26 04:03:56+0000,-33.18,-40.72,-30.64,-49.57,-53.50,-54.16
2022/02/26 04:04:48+0000,-30.25,-41.23,-30.19,-50.73,-53.38,-54.56
2022/02/26 04:05:40+0000,-30.41,-43.46,-30.28,-50.29,-53.03,-54.56
2022/02/26 04:06:32+0000,-26.82,-39.90,-30.91,-43.05,-53.21,-54.63
2022/02/26 04:07:24+0000,-30.79,-41.24,-30.41,-49.36,-53.63,-54.34
2022/02/26 04:08:16+0000,-33.22,-41.55,-30.92,-50.18,-52.02,-53.94
2022/02/26 04:09:09+0000,-32.32,-41.67,-30.77,-50.05,-52.14,-53.32
2022/02/26 04:10:01+0000,-31.06,-39.95,-30.84,-50.08,-52.11,-53.41
2022/02/26 04:11:01+0000,-28.80,-39.87,-31.15,-49.53,-52.53,-53.27
2022/02/26 04:11:53+0000,-28.58,-40.62,-31.13,-49.55,-52.09,-52.84
2022/02/26 04:12:45+0000,-27.95,-42.42,-30.87,-49.39,-51.66,-53.33
2022/02/26 04:13:37+0000,-26.55,-42.37,-30.45,-49.80,-51.80,-53.23
2022/02/26 04:14:29+0000,-25.32,-40.16,-30.45,-49.80,-51.61,-52.69
2022/02/26 04:15:21+0000,-29.56,-42.27,-30.48,-49.50,-51.56,-52.85
2022/02/26 04:16:13+0000,-28.17,-42.03,-30.80,-49.31,-51.07,-52.08
2022/02/26 04:17:05+0000,-34.53,-43.22,-31.15,-49.08,-52.24,-52.05
2022/02/26 04:17:57+0000,-31.13,-38.06,-30.70,-49.28,-50.79,-51.73
2022/02/26 04:18:49+0000,-31.77,-42.12,-30.70,-49.63,-51.88,-52.08
2022/02/26 04:19:42+0000,-32.88,-42.17,-30.32,-49.50,-51.66,-51.67
2022/02/26 04:20:34+0000,-31.98,-40.64,-30.53,-49.44,-51.52,-52.39
2022/02/26 04:21:34+0000,-32.26,-39.34,-30.48,-48.94,-51.31,-52.49
2022/02/26 04:22:26+0000,-32.86,-39.02,-30.82,-49.46,-51.21,-52.72
2022/02/26 04:23:18+0000,-34.05,-41.88,-30.32,-48.72,-51.42,-52.05
2022/02/26 04:24:10+0000,-33.08,-43.38,-31.29,-48.77,-51.28,-52.11
2022/02/26 04:25:02+0000,-33.77,-42.07,-31.26,-48.24,-51.17,-52.38
2022/02/26 04:25:54+0000,-34.82,-40.40,-30.72,-49.02,-51.38,-52.30
2022/02/26 04:26:46+0000,-33.43,-41.94,-30.97,-49.46,-51.48,-52.41
2022/02/26 04:27:38+0000,-33.05,-43.00,-30.53,-49.60,-51.47,-52.55
2022/02/26 04:28:30+0000,-35.53,-40.07,-31.55,-49.35,-51.49,-52.28
2022/02/26 04:29:22+0000,-31.91,-42.39,-30.22,-49.47,-50.72,-51.76
2022/02/26 04:30:15+0000,-35.52,-41.70,-30.82,-49.62,-51.70,-51.89
2022/02/26 04:31:15+0000,-35.46,-41.78,-30.53,-48.88,-51.46,-52.25
2022/02/26 04:32:07+0000,-33.82,-42.16,-31.09,-49.66,-51.00,-52.62
2022/02/26 04:32:59+0000,-33.04,-42.52,-31.08,-48.55,-51.41,-52.77
2022/02/26 04:33:51+0000,-33.72,-42.27,-30.90,-49.63,-50.79,-52.01
2022/02/26 04:34:43+0000,-32.88,-42.03,-31.18,-49.25,-51.11,-53.17
2022/02/26 04:35:35+0000,-33.76,-42.32,-31.06,-49.41,-50.60,-52.51
2022/02/26 04:36:27+0000,-32.29,-41.41,-30.84,-48.64,-50.58,-52.50
2022/02/26 04:37:19+0000,-32.19,-41.51,-31.18,-49.02,-51.34,-51.83
2022/02/26 04:38:11+0000,-33.87,-42.44,-31.25,-49.08,-50.90,-52.72
2022/02/26 04:39:03+0000,-33.20,-41.24,-30.57,-49.53,-51.13,-52.47
2022/02/26 04:39:56+0000,-33.95,-40.41,-29.63,-48.77,-51.05,-52.56
2022/02/26 04:40:48+0000,-34.29,-42.38,-30.47,-49.19,-51.30,-52.28
2022/02/26 04:41:46+0000,-33.39,-42.24,-31.03,-49.19,-50.78,-52.58
2022/02/26 04:42:38+0000,-33.20,-44.10,-30.80,-49.71,-50.86,-52.38
2022/02/26 04:43:30+0000,-33.97,-42.09,-31.34,-49.19,-50.67,-52.32
2022/02/26 04:44:22+0000,-33.13,-43.37,-31.16,-48.22,-51.60,-52.85
2022/02/26 04:45:14+0000,-33.43,-41.84,-31.32,-49.01,-51.52,-52.47
2022/02/26 04:46:06+0000,-34.47,-40.57,-30.41,-49.73,-50.79,-53.38